Location: Newark
(41.9364°N, 2.8061°E)
Time: 00:50:26
(UTC+00:00)

Hubble Space Telescope - Visible Passes

Search period start: 25 July 2021 00:00
Search period end: 04 August 2021 00:00
Orbit: 535 x 539 km, 28.5° (Epoch: 24 July)

Date Brightness Start Highest point End Pass type
(mag) Time Alt. Az. Time Alt. Az. Time Alt. Az.
25 Jul 2.8 20:34:03 10° SSW 20:35:44 12° S 20:35:44 12° S visible
26 Jul 2.8 20:22:52 10° SSW 20:24:36 12° S 20:25:22 12° SSE visible
27 Jul 2.9 20:11:47 10° SSW 20:13:30 12° S 20:14:56 11° SSE visible
28 Jul 2.9 20:00:47 10° SSW 20:02:23 12° S 20:03:58 10° SSE visible
29 Jul 3.0 19:49:55 10° SSW 19:51:15 11° S 19:52:36 10° SSE visible
30 Jul 3.1 19:39:17 10° SSW 19:40:07 11° S 19:40:59 10° S visible
